Lid_Strength_Index
6 4 3 3 3 3 6 7 12 5 5 11 12 15 11 8 10 8 9 10 10 12 12 13 13 13 11 9 9 12 11 13 17 14 11 9 11 12 13 18 18 18 19 20
5 6 5 3 3 4 8 10 10 5 6 14 16 11 10 9 10 9 9 10 9 10 12 14 12 12 9 9 10 12 11 15 21 17 14 13 14 13 12 13 15 18 21 18
5 5 5 5 4 3 8 10 14 9 9 10 12 12 12 11 9 9 9 10 10 11 13 12 13 12 10 9 10 7 9 14 17 20 18 15 16 14 13 14 20 18 17 16
5 5 5 5 5 4 7 10 13 12 15 12 12 12 12 12 12 10 10 12 11 12 14 14 14 12 11 10 8 10 11 16 16 14 14 14 14 14 14 15 15 18 16 16
5 6 6 5 6 5 10 12 12 12 13 12 13 12 13 12 12 12 12 13 11 12 14 13 14 13 13 13 12 12 12 17 16 19 14 15 16 15 14 14 14 14 14 15
5 6 6 6 6 7 12 12 11 11 12 13 15 14 13 12 11 11 10 11 13 13 12 12 12 12 12 12 13 14 14 17 19 20 17 17 19 16 16 15 15 14 17 14
5 6 6 7 7 7 12 13 13 14 15 14 13 12 12 12 12 13 11 11 13 12 10 11 12 13 13 13 13 12 15 16 18 21 19 24 17 14 14 15 14 13 14 13
4 6 6 6 6 7 11 13 13 15 17 15 14 13 13 12 12 13 12 11 11 11 12 15 17 17 16 15 14 15 14 16 20 22 23 18 16 16 16 17 17 14 13 13
4 5 6 6 6 6 10 12 12 14 16 16 14 15 14 15 16 15 12 11 10 11 13 16 20 21 19 19 18 15 14 15 18 20 23 22 18 16 14 15 20 15 14 14
3 4 6 6 6 6 10 12 12 13 16 14 15 16 16 14 16 16 15 13 13 12 15 17 19 20 17 20 20 20 18 18 18 18 19 18 15 14 14 20 18 14 13 14
2 3 5 6 7 7 10 11 11 13 16 15 13 13 14 15 15 17 15 15 15 16 18 19 19 19 18 18 17 18 18 20 20 19 20 22 15 15 17 15 15 14 14 14
3 3 4 6 7 7 8 12 11 11 14 15 12 12 12 12 13 15 15 16 15 15 17 18 18 19 19 19 21 18 20 17 18 18 18 14 14 14 13 14 15 15 14 13
3 2 3 4 6 7 9 12 12 12 15 15 14 14 12 11 12 12 15 15 14 14 13 15 16 18 18 20 19 18 17 16 18 18 16 14 13 13 13 14 14 13 13 13
3 3 3 4 5 6 7 12 12 13 14 18 16 13 14 13 12 12 12 13 12 13 14 15 16 18 15 18 17 18 16 16 17 16 15 14 14 14 13 13 14 13 14 14
4 4 4 4 5 6 8 10 10 11 14 17 16 14 14 14 14 14 13 13 14 15 16 18 17 16 16 16 16 16 14 15 16 17 14 14 14 15 14 14 14 14 14 14
5 5 4 5 5 6 9 14 12 11 12 16 17 14 16 15 14 14 15 14 15 15 16 17 15 14 15 19 19 15 14 13 12 13 12 13 13 14 14 14 14 14 14 14
4 5 5 5 5 8 10 12 11 10 11 14 17 17 15 14 15 15 15 15 16 16 16 17 17 16 15 17 18 14 14 14 13 13 13 13 13 13 13 14 13 13 14 14
5 5 4 4 5 7 9 8 8 10 13 15 18 18 17 16 17 17 14 15 14 15 16 15 16 16 16 18 15 14 14 14 14 13 13 12 13 13 14 14 14 15 15 16
4 5 6 7 9 10 11 8 9 11 13 16 17 18 17 17 17 17 17 15 18 16 16 16 16 17 18 16 16 15 14 15 14 13 13 14 14 14 14 14 15 16 16 16
5 8 10 13 11 8 8 12 14 14 14 15 17 18 18 17 18 17 18 16 17 19 17 17 17 18 14 14 13 13 13 13 13 16 15 16 16 15 14 15 15 15 16 16
9 11 12 11 8 12 13 15 16 16 17 16 16 16 16 14 16 16 15 18 18 20 19 19 19 19 17 14 14 13 14 14 14 14 14 14 14 15 15 15 15 15 16 16
8 9 10 10 12 14 15 16 16 17 18 17 16 16 15 15 14 15 16 19 18 21 17 19 21 18 16 15 14 13 14 14 14 13 13 13 13 13 14 15 16 16 16 17
8 12 13 13 14 17 18 22 19 18 16 15 15 16 14 15 14 15 15 18 18 18 19 20 18 14 13 13 13 14 14 13 13 13 12 12 12 12 13 14 15 15 15 15
12 13 16 16 18 16 16 17 17 14 14 14 14 15 14 13 14 14 17 15 16 19 22 21 16 13 12 11 12 13 12 12 12 14 14 13 13 13 14 14 14 14 14 14
10 11 16 16 15 18 16 16 15 14 12 11 12 12 12 14 15 13 16 17 21 21 19 16 14 11 11 10 10 9 9 11 12 12 14 13 13 14 14 13 14 14 14 15
9 11 14 12 13 14 14 18 16 13 12 12 12 11 12 12 13 15 17 20 21 17 16 14 13 10 10 8 9 9 8 9 11 12 12 12 13 13 14 13 13 13 14 15
9 12 10 15 17 16 14 12 12 10 10 11 10 12 14 13 13 15 17 18 14 13 12 11 10 10 8 8 9 9 9 9 9 11 10 11 13 15 16 14 11 13 14 14